Location: *
(57.8420°S, 159.8600°W)
Time: 05:09:06
(UTC+00:00)

USA 238 - Pass Details

Date: 18 May 2021
Orbit: 989 x 1223 km, 63.4° (Epoch: 18 June)

Event Time Altitude Azimuth Distance (km) Brightness Sun altitude
Rises 04:30:20 0° 288° (WNW) 4,100 8.6 -15.8°
Reaches altitude 10° 04:33:10 10° 285° (WNW) 3,114 7.5 -16.1°
Maximum altitude 04:40:36 68° 202° (SSW) 1,230 4.0 -17.1°
Enters shadow 04:45:15 23° 123° (ESE) 2,155 4.8 -17.7°
